Weather observations for the past three days for
Yakutat
Imperial (Metric)
Date Time (akdt) Wind (mph) Vis. (mi.) Weather Sky Cond. Temperature (ºF) Relative Humidity Wind Chill (°F) Heat Index (°F) Pressure Precipitation (in)
Air Dwpt 6 hour altimeter (in) sea level (mb) 1 hr 3 hr 6 hr
Max. Min.
15 09:53 E 7 2.50 Fog/Mist SCT007 OVC013 57 55 57 54 93% 29.9 1012.6
15 08:53 E 6 1.75 Fog/Mist FEW004 BKN013 OVC023 55.9 55 97% 29.9 1012.5
15 07:53 NE 5 1.50 Fog/Mist OVC008 55 54 96% 29.9 1012.4
15 06:53 E 6 1.50 Fog/Mist OVC010 54 54 100% 29.9 1012.5
15 05:53 E 5 1.25 Fog/Mist OVC007 54 53.1 97% 29.9 1012.6
15 04:53 E 3 2.00 Fog/Mist OVC008 55 54 96% 29.9 1012.6
15 03:53 E 5 1.75 Fog/Mist OVC007 55 54 55.9 55 96% 29.9 1012.6 0.09
15 02:53 E 7 2.00 Fog/Mist OVC007 55 54 96% 29.9 1012.6
15 01:53 E 5 2.50 Fog/Mist OVC009 55 54 96% 29.9 1012.6
15 00:53 E 8 2.50 Fog/Mist OVC009 55 54 96% 29.91 1012.8 0.03 0.09
14 23:53 E 5 2.00 Fog/Mist OVC010 55 54 96% 29.9 1012.7 0.03
14 22:53 E 5 1.75 Fog/Mist OVC009 55.9 55 97% 29.9 1012.6 0.03
14 21:53 SE 8 1.50 Fog/Mist FEW005 OVC009 55.9 55 57 55.9 97% 29.9 1012.4 0.07 0.39
14 20:53 SE 8 1.25 Light Rain Fog/Mist OVC008 55.9 55 97% 29.89 1012.2 0.04
14 19:53 E 12 1.50 Light Rain Fog/Mist OVC008 57 55.9 96% 29.89 1012.3 0.06
14 18:53 SE 9 G 17 1.25 Rain Fog/Mist OVC010 57 55.9 96% 29.89 1012.3 0.06 0.22
14 17:53 SE 10 1.50 Light Rain Fog/Mist OVC008 57 55.9 96% 29.89 1012.2 0.1
14 16:53 SE 10 G 21 1.25 Light Rain Fog/Mist OVC010 57 55.9 96% 29.89 1012.2 0.06
14 15:53 SE 9 G 18 1.25 Light Rain Fog/Mist OVC007 57 55.9 57 55.9 96% 29.89 1012.0 0.04 0.59
14 14:53 SE 9 1.50 Light Rain Fog/Mist OVC007 57 55.9 96% 29.88 1011.9 0.12
14 13:53 SE 12 G 17 1.25 Light Rain Fog/Mist OVC008 57 55.9 96% 29.87 1011.4 0.11
14 12:53 SE 9 G 21 3.00 Light Rain Fog/Mist BKN008 OVC011 57 55.9 96% 29.86 1011.2 0.09 0.32
14 11:53 SE 15 G 24 4.00 Light Rain Fog/Mist BKN007 OVC012 57 55.9 96% 29.85 1010.8 0.13
14 10:53 SE 17 G 23 3.00 Rain Fog/Mist OVC006 57 55.9 96% 29.84 1010.5 0.1
14 09:53 SE 16 G 35 3.00 Light Rain Fog/Mist BKN006 OVC010 57 55 57 55.9 93% 29.81 1009.6 0.07 0.85
14 08:53 SE 17 G 25 3.00 Light Rain Fog/Mist BKN007 OVC011 57 55 93% 29.81 1009.6 0.15
14 07:53 SE 17 G 26 2.50 Rain Fog/Mist BKN008 OVC011 57 55 93% 29.81 1009.3 0.18
14 06:53 SE 12 G 25 1.75 Rain Fog/Mist OVC008 57 55 93% 29.82 1009.7 0.14 0.45
14 05:53 SE 13 G 25 1.50 Rain Fog/Mist OVC008 57 55 93% 29.81 1009.4 0.19
14 04:53 E 14 G 23 2.50 Rain Fog/Mist OVC008 57 55 93% 29.81 1009.5 0.12
14 03:53 E 16 G 25 3.00 Light Rain Fog/Mist OVC008 55.9 55 57 55.9 97% 29.81 1009.5 0.08 0.51
14 02:53 SE 14 G 23 3.00 Light Rain Fog/Mist OVC009 55.9 55 97% 29.82 1009.9 0.09
14 01:53 E 14 G 21 2.50 Light Rain Fog/Mist OVC008 55.9 55 97% 29.83 1010.3 0.08
14 00:53 E 9 G 16 2.00 Light Rain Fog/Mist OVC008 55.9 55 97% 29.84 1010.5 0.06 0.26
13 23:53 E 13 G 20 3.00 Light Rain Fog/Mist OVC008 55.9 55 97% 29.85 1010.9 0.12
13 22:53 E 12 G 22 3.00 Rain Fog/Mist OVC008 55.9 55 97% 29.86 1011.2 0.08
13 21:53 E 12 G 22 3.00 Light Rain Fog/Mist OVC008 57 55 57 57 93% 29.86 1011.0 0.04 0.53
13 20:53 E 15 G 24 1.75 Rain Fog/Mist OVC009 57 55 93% 29.86 1011.3 0.1
13 19:53 E 16 G 24 1.25 Light Rain Fog/Mist OVC009 57 55.9 96% 29.87 1011.5 0.13
13 18:53 SE 17 G 25 1.25 Light Rain Fog/Mist OVC009 57 55 93% 29.88 1011.9 0.08 0.26
13 17:53 E 21 G 33 1.50 Light Rain Fog/Mist and Breezy OVC011 57 55.9 96% 29.88 1011.9 0.1
13 16:53 E 20 G 35 2.00 Light Rain Fog/Mist OVC011 57 55 93% 29.89 1012.2 0.08
13 15:53 SE 16 G 33 1.50 Rain Fog/Mist OVC009 57 55 57 53.1 93% 29.91 1012.7 0.17 0.68
13 14:53 E 9 G 22 2.00 Rain Fog/Mist BKN009 OVC012 55.9 54 93% 29.92 1013.0 0.17
13 13:53 E 13 2.50 Rain Fog/Mist BKN011 OVC014 55 53.1 93% 29.92 1013.3 0.13
13 12:53 E 15 2.00 Light Rain Fog/Mist BKN010 OVC015 55 53.1 93% 29.93 1013.6 0.08 0.21
13 11:53 E 15 1.75 Light Rain Fog/Mist OVC015 54 52 93% 29.95 1014.3 0.09
13 10:53 NE 13 2.00 Light Rain Fog/Mist OVC019 54 52 93% 29.97 1014.9 0.04
13 09:53 E 9 4.00 Light Rain Fog/Mist OVC015 53.1 52 53.1 52 96% 29.98 1015.3 0.08 0.25
13 08:53 NE 13 3.00 Light Rain Fog/Mist OVC013 53.1 51.1 93% 30 1015.9 0.04
13 07:53 E 10 5.00 Light Rain Fog/Mist BKN017 OVC025 53.1 51.1 93% 30.02 1016.5 0.03
13 06:53 E 9 8.00 Light Rain SCT016 SCT022 OVC070 52 50 93% 30.04 1017.2 0.04 0.1
13 05:53 E 7 8.00 Light Rain OVC014 52 51.1 97% 30.06 1017.8 0.05
13 03:53 E 9 5.00 Fog/Mist BKN006 BKN018 OVC033 52 51.1 53.1 52 97% 30.08 1018.7
13 02:53 E 7 7.00 Overcast BKN007 OVC021 53.1 51.1 93% 30.1 1019.3
13 01:53 E 9 10.00 Overcast OVC006 53.1 51.1 93% 30.11 1019.5
13 00:53 E 7 10.00 Overcast FEW006 SCT022 OVC030 53.1 51.1 93% 30.12 1019.9
12 23:53 E 7 10.00 Overcast BKN008 OVC013 53.1 51.1 93% 30.13 1020.4
12 22:53 E 6 10.00 Overcast FEW005 BKN020 OVC041 53.1 52 96% 30.13 1020.4
12 21:53 E 6 2.00 Fog/Mist BKN005 BKN011 OVC031 53.1 52 55 53.1 96% 30.13 1020.3
12 20:53 E 5 10.00 Overcast FEW007 BKN023 OVC033 54 52 93% 30.14 1020.5
12 19:53 E 6 10.00 Overcast FEW008 BKN026 OVC060 55 52 90% 30.14 1020.7
12 18:53 SE 8 10.00 Overcast BKN011 OVC055 55 52 90% 30.15 1021.1
12 17:53 SE 8 5.00 Fog/Mist SCT010 BKN022 OVC027 55 52 90% 30.16 1021.3
12 16:53 SE 5 6.00 Fog/Mist SCT009 SCT016 OVC021 54 52 93% 30.16 1021.3
12 15:53 SE 6 3.00 Light Rain Fog/Mist FEW007 BKN022 OVC030 55 53.1 55.9 53.1 93% 30.16 1021.2 0.04 0.11
12 14:53 E 7 9.00 Overcast SCT009 BKN018 OVC040 55 52 90% 30.16 1021.2
12 13:53 E 7 10.00 Overcast FEW009 SCT018 OVC039 55 53.1 93% 30.16 1021.2
12 12:53 E 8 8.00 Overcast BKN010 BKN038 OVC049 55 52 90% 30.15 1021.1 0.07
12 11:53 E 7 6.00 Fog/Mist SCT007 OVC018 55 53.1 93% 30.15 1020.9 0.01
12 10:53 SE 6 2.00 Light Rain Fog/Mist BKN005 OVC016 54 52 93% 30.14 1020.6 0.06
Date Time (akdt) Wind (mph) Vis. (mi.) Weather Sky Cond. Air Dwpt Max. Min. Relative Humidity Wind Chill (°F) Heat Index (°F) altimeter (in) sea level (mb) 1 hr 3 hr 6 hr
6 hour
Temperature (ºF) Pressure Precipitation (in)